Regional Weather Roundup
Issued by NWS

Home | Current Version | Previous Version | Text Only | Print | Product List | Glossary Off
Versions: 1 2 3 4 5 6 7 8 9 10 11 12 13 14 15 16 17 18 19 20 21 22 23 24 25 26 27 28 29 30 31 32 33 34 35 36 37 38 39 40 41 42 43 44 45 46 47 48 49 50

000
ASUS43 KOAX 271210
RWRNE

WEATHER ROUNDUP FOR NEBRASKA
NATIONAL WEATHER SERVICE OMAHA NE
700 AM CDT TUE SEP 27 2016

NOTES: SATELLITE DATA IS BEING USED TO AUGMENT CLOUD COVER ABOVE
       12000 FEET.
       "FAIR" INDICATES FEW OR NO CLOUDS BELOW 12,000 FEET WITH NO
       SIGNIFICANT WEATHER AND/OR OBSTRUCTIONS TO VISIBILITY.

  * THESE STATIONS DO NOT REPORT WEATHER SUCH AS RAIN...SNOW OR FOG.

NEZ001>004-019>022-054>056-271300-
NEBRASKA PANHANDLE

CITY           SKY/WX    TMP DP  RH WIND       PRES   REMARKS
SCOTTSBLUFF    CLEAR     39  36  89 NW5       30.18S
6HR MIN TEMP:  39; 6HR MAX TEMP:  50;

ALLIANCE       CLOUDY    35  34  96 W5        30.17S WCI  31
6HR MIN TEMP:  34; 6HR MAX TEMP:  39;

CHADRON        CLEAR     40  37  89 SW6       30.14S
6HR MIN TEMP:  39; 6HR MAX TEMP:  46;

KIMBALL        CLOUDY    42  38  88 W8        30.22S
SIDNEY         CLEAR     42  38  85 NW10      30.20S
6HR MIN TEMP:  40; 6HR MAX TEMP:  47;

$$

NEZ057>060-069>072-079>082-271300-
SOUTHWEST NEBRASKA

CITY           SKY/WX    TMP DP  RH WIND       PRES   REMARKS
NORTH PLATTE   CLEAR     37  35  92 NW6       30.15S WCI  32
6HR MIN TEMP:  37; 6HR MAX TEMP:  45;

IMPERIAL       CLEAR     47  40  76 W7        30.17S
6HR MIN TEMP:  44; 6HR MAX TEMP:  54;

LEXINGTON      CLEAR     43  40  87 W6        30.12S
MCCOOK         CLEAR     44  40  85 W8        30.13S
6HR MIN TEMP:  43; 6HR MAX TEMP:  51;

OGALLALA       CLEAR     41  39  93 CALM      30.17S
$$

NEZ005>010-023>029-035>040-094-271300-
NORTH CENTRAL NEBRASKA

CITY           SKY/WX    TMP DP  RH WIND       PRES   REMARKS
VALENTINE      CLEAR     39  36  89 W6        30.11F WCI  35
6HR MIN TEMP:  38; 6HR MAX TEMP:  50;

AINSWORTH      CLEAR     44  40  87 W8        30.10S
BROKEN BOW     CLEAR     37  36  96 CALM      30.11S
6HR MIN TEMP:  37; 6HR MAX TEMP:  49;

O`NEILL        CLEAR     44  40  86 W8        30.08S
ORD            CLEAR     40  37  89 NW5       30.09R
6HR MIN TEMP:  40; 6HR MAX TEMP:  46; 6HR PCP: TRACE;

THEDFORD       CLEAR     41  39  92 CALM      30.14S
$$

NEZ041-046>049-061>064-073>077-083>087-271300-
SOUTH CENTRAL NEBRASKA

CITY           SKY/WX    TMP DP  RH WIND       PRES   REMARKS
GRAND ISLAND   CLEAR     46  41  82 W7        30.08S
6HR MIN TEMP:  46; 6HR MAX TEMP:  50;

AURORA         CLEAR     49  45  86 NW8       30.07S
HASTINGS       CLEAR     50  41  71 NW8       30.08F
6HR MIN TEMP:  47; 6HR MAX TEMP:  54;

HEBRON         CLEAR     46  43  90 CALM      30.07R
HOLDREGE       CLEAR     46  40  80 NW6       30.10S
KEARNEY *      CLEAR     48  39  71 NW7       30.09S
YORK           CLEAR     45  43  93 W7        30.06S
$$

NEZ011>018-030>034-042>045-271300-
NORTHEAST NEBRASKA

CITY           SKY/WX    TMP DP  RH WIND       PRES   REMARKS
NORFOLK        CLEAR     44  40  85 W6        30.05F
6HR MIN TEMP:  43; 6HR MAX TEMP:  50;

ALBION         CLEAR     39  38  93 NW5       30.07S
BLAIR          CLEAR     50  44  81 CALM      30.03S
FREMONT        CLEAR     45  44  97 W3        30.04F
TEKAMAH        CLEAR     47  41  80 NW3       30.03S
6HR MIN TEMP:  45; 6HR MAX TEMP:  53;

WAYNE          CLEAR     41  40  94 SW3       30.05S
$$

NEZ050>053-065>068-078-088>093-271300-
SOUTHEAST NEBRASKA

CITY           SKY/WX    TMP DP  RH WIND       PRES   REMARKS
LINCOLN        CLEAR     46  43  89 CALM      30.06S
6HR MIN TEMP:  46; 6HR MAX TEMP:  53;

OMAHA EPPLEY   CLEAR     51  44  77 CALM      30.04R
6HR MIN TEMP:  50; 6HR MAX TEMP:  56;

BEATRICE       CLEAR     46  45  94 CALM      30.05S
FALLS CITY     PTCLDY    50  46  86 W6        30.03S
6HR MIN TEMP:  49; 6HR MAX TEMP:  57;

NEBRASKA CITY  CLEAR     51  40  66 N5        30.03S
PLATTSMOUTH    CLEAR     51  43  73 NW5       30.04S
$$

NEZ044-045-051>053-067-271300-
OMAHA AREA

CITY           SKY/WX    TMP DP  RH WIND       PRES   REMARKS
OMAHA EPPLEY   CLEAR     51  44  77 CALM      30.04R
6HR MIN TEMP:  50; 6HR MAX TEMP:  56;

BLAIR          CLEAR     50  44  81 CALM      30.03S
FREMONT        CLEAR     45  44  97 W3        30.04F
MILLARD        CLEAR     49  47  94 CALM      30.04S
OFFUTT AFB     CLEAR     47  46  99 NW2       30.03S
PLATTSMOUTH    CLEAR     51  43  73 NW5       30.04S
WAHOO          FAIR      45  43  91 CALM      30.05S
$$



USA.gov is the U.S. government's official web portal to all federal, state and local government web resources and services.